• In Italy
  • List of Countries
  • For 7 days
  • Water Temperature
  • Satellite Maps
  • Weather Map
  • Weather Widgets
  • user-avatar
    Login

    Hourly Weather Gurzuf

    Today, 18 August, Saturday

    Time Temperature Precipitation Wind Pressure Humidity
    00:00 +20°C° 0 mm 5 mps 699 mmHg 52%
    01:00 +20°C° 0 mm 5 mps 699 mmHg 53%
    02:00 +20°C° 0 mm 5 mps 699 mmHg 53%
    03:00 +20°C° 0 mm 5 mps 699 mmHg 56%
    04:00 +19°C° 0 mm 5 mps 699 mmHg 59%
    05:00 +17°C° 0 mm 5 mps 699 mmHg 62%
    06:00 +21°C° 0 mm 5 mps 700 mmHg 55%
    07:00 +23°C° 0 mm 5 mps 700 mmHg 48%
    08:00 +26°C° 0 mm 5 mps 700 mmHg 41%
    09:00 +28°C° 0 mm 6 mps 701 mmHg 36%
    10:00 +29°C° 0 mm 6 mps 701 mmHg 31%
    11:00 +30°C° 0 mm 6 mps 701 mmHg 27%
    12:00 +30°C° 0 mm 6 mps 701 mmHg 28%
    13:00 +30°C° 0 mm 6 mps 701 mmHg 29%
    14:00 +30°C° 0 mm 6 mps 701 mmHg 30%
    15:00 +29°C° 0 mm 6 mps 701 mmHg 32%
    16:00 +28°C° 0 mm 6 mps 701 mmHg 35%
    17:00 +27°C° 0 mm 6 mps 701 mmHg 37%
    18:00 +24°C° 0 mm 6 mps 701 mmHg 43%
    19:00 +23°C° 0 mm 6 mps 701 mmHg 48%
    20:00 +21°C° 0 mm 5 mps 701 mmHg 53%
    21:00 +20°C° 0 mm 6 mps 701 mmHg 56%
    22:00 +20°C° 0 mm 6 mps 701 mmHg 59%
    23:00 +20°C° 0 mm 6 mps 701 mmHg 63%

    Tomorrow, 19 August, Sunday

    Time Temperature Precipitation Wind Pressure Humidity
    00:00 +19°C° 0 mm 6 mps 701 mmHg 66%
    01:00 +19°C° 0 mm 6 mps 701 mmHg 70%
    02:00 +17°C° 0 mm 6 mps 701 mmHg 74%
    03:00 +17°C° 0 mm 6 mps 701 mmHg 77%
    04:00 +16°C° 0 mm 6 mps 701 mmHg 80%
    05:00 +16°C° 0 mm 6 mps 701 mmHg 83%
    06:00 +19°C° 0 mm 6 mps 701 mmHg 73%
    07:00 +20°C° 0 mm 7 mps 702 mmHg 63%
    08:00 +22°C° 0 mm 7 mps 702 mmHg 52%
    09:00 +23°C° 0 mm 7 mps 702 mmHg 48%
    10:00 +24°C° 0 mm 7 mps 702 mmHg 44%
    11:00 +26°C° 0 mm 7 mps 702 mmHg 40%
    12:00 +26°C° 0 mm 7 mps 702 mmHg 40%
    13:00 +26°C° 0 mm 7 mps 702 mmHg 40%
    14:00 +26°C° 0 mm 7 mps 702 mmHg 41%
    15:00 +24°C° 0 mm 7 mps 702 mmHg 42%
    16:00 +23°C° 0 mm 7 mps 702 mmHg 43%
    17:00 +22°C° 0 mm 7 mps 702 mmHg 44%
    18:00 +20°C° 0 mm 7 mps 702 mmHg 49%
    19:00 +17°C° 0 mm 7 mps 702 mmHg 54%
    20:00 +15°C° 0 mm 7 mps 701 mmHg 59%
    21:00 +15°C° 0 mm 7 mps 701 mmHg 61%
    22:00 +15°C° 0 mm 7 mps 701 mmHg 62%
    23:00 +15°C° 0 mm 7 mps 701 mmHg 64%

    Day after tomorrow, 20 August, Monday

    Time Temperature Precipitation Wind Pressure Humidity
    00:00 +15°C° 0 mm 6 mps 701 mmHg 65%
    01:00 +14°C° 0 mm 6 mps 701 mmHg 66%
    02:00 +14°C° 0 mm 6 mps 701 mmHg 67%
    03:00 +14°C° 0 mm 7 mps 701 mmHg 67%
    04:00 +14°C° 0 mm 7 mps 701 mmHg 66%
    05:00 +12°C° 0 mm 7 mps 701 mmHg 66%
    06:00 +15°C° 0 mm 7 mps 701 mmHg 58%
    07:00 +17°C° 0 mm 8 mps 701 mmHg 49%
    08:00 +20°C° 0 mm 8 mps 701 mmHg 41%
    09:00 +21°C° 0 mm 8 mps 702 mmHg 38%
    10:00 +23°C° 0 mm 8 mps 702 mmHg 34%
    11:00 +24°C° 0 mm 8 mps 702 mmHg 30%
    12:00 +24°C° 0 mm 8 mps 702 mmHg 31%
    13:00 +24°C° 0 mm 8 mps 702 mmHg 31%
    14:00 +24°C° 0 mm 8 mps 702 mmHg 32%
    15:00 +23°C° 0 mm 7 mps 702 mmHg 35%
    16:00 +23°C° 0 mm 7 mps 701 mmHg 38%
    17:00 +22°C° 0 mm 7 mps 701 mmHg 41%
    18:00 +20°C° 0 mm 6 mps 701 mmHg 48%
    19:00 +17°C° 0 mm 6 mps 701 mmHg 54%
    20:00 +15°C° 0 mm 6 mps 701 mmHg 61%
    21:00 +14°C° 0 mm 6 mps 701 mmHg 62%
    22:00 +14°C° 0 mm 6 mps 701 mmHg 64%
    23:00 +14°C° 0 mm 6 mps 701 mmHg 65%

    21 August, Tuesday

    Time Temperature Precipitation Wind Pressure Humidity
    00:00 +14°C° 0 mm 5 mps 701 mmHg 67%
    01:00 +14°C° 0 mm 5 mps 701 mmHg 68%
    02:00 +14°C° 0 mm 5 mps 700 mmHg 70%
    03:00 +14°C° 0 mm 5 mps 701 mmHg 70%
    04:00 +14°C° 0 mm 5 mps 701 mmHg 70%
    05:00 +14°C° 0 mm 5 mps 701 mmHg 70%
    06:00 +16°C° 0 mm 5 mps 701 mmHg 60%
    07:00 +19°C° 0 mm 6 mps 701 mmHg 49%
    08:00 +22°C° 0 mm 6 mps 702 mmHg 39%
    09:00 +23°C° 0 mm 6 mps 702 mmHg 35%
    10:00 +24°C° 0 mm 6 mps 702 mmHg 32%
    11:00 +27°C° 0 mm 6 mps 702 mmHg 28%
    12:00 +27°C° 0 mm 6 mps 702 mmHg 28%
    13:00 +27°C° 0 mm 5 mps 702 mmHg 29%
    14:00 +27°C° 0 mm 5 mps 702 mmHg 29%
    15:00 +26°C° 0 mm 5 mps 702 mmHg 32%
    16:00 +26°C° 0 mm 5 mps 702 mmHg 35%
    17:00 +25°C° 0 mm 4 mps 702 mmHg 38%
    18:00 +21°C° 0 mm 4 mps 702 mmHg 43%
    19:00 +19°C° 0 mm 4 mps 702 mmHg 49%
    20:00 +17°C° 0 mm 4 mps 702 mmHg 55%
    21:00 +17°C° 0 mm 4 mps 702 mmHg 54%
    22:00 +15°C° 0 mm 4 mps 702 mmHg 54%
    23:00 +15°C° 0 mm 4 mps 702 mmHg 53%

    22 August, Wednesday

    Time Temperature Precipitation Wind Pressure Humidity
    00:00 +15°C° 0 mm 4 mps 702 mmHg 53%
    01:00 +15°C° 0 mm 4 mps 702 mmHg 52%
    02:00 +15°C° 0 mm 4 mps 702 mmHg 52%
    03:00 +15°C° 0 mm 4 mps 702 mmHg 54%
    04:00 +15°C° 0 mm 4 mps 702 mmHg 57%
    05:00 +14°C° 0 mm 4 mps 702 mmHg 59%
    06:00 +18°C° 0 mm 4 mps 702 mmHg 55%
    07:00 +21°C° 0 mm 5 mps 703 mmHg 50%
    08:00 +23°C° 0 mm 5 mps 703 mmHg 45%
    09:00 +25°C° 0 mm 5 mps 703 mmHg 40%
    10:00 +27°C° 0 mm 4 mps 703 mmHg 34%
    11:00 +28°C° 0 mm 4 mps 703 mmHg 28%
    12:00 +29°C° 0 mm 4 mps 703 mmHg 28%
    13:00 +29°C° 0 mm 4 mps 703 mmHg 29%
    14:00 +29°C° 0 mm 4 mps 703 mmHg 29%
    15:00 +28°C° 0 mm 4 mps 703 mmHg 32%
    16:00 +27°C° 0 mm 3 mps 703 mmHg 36%
    17:00 +26°C° 0 mm 3 mps 703 mmHg 39%
    18:00 +24°C° 0 mm 3 mps 703 mmHg 45%
    19:00 +20°C° 0 mm 3 mps 702 mmHg 51%
    20:00 +18°C° 0 mm 3 mps 702 mmHg 57%
    21:00 +18°C° 0 mm 3 mps 702 mmHg 56%
    22:00 +17°C° 0 mm 3 mps 702 mmHg 56%
    23:00 +17°C° 0 mm 3 mps 702 mmHg 55%

    23 August, Thursday

    Time Temperature Precipitation Wind Pressure Humidity
    00:00 +17°C° 0 mm 3 mps 702 mmHg 53%
    01:00 +17°C° 0 mm 3 mps 701 mmHg 51%
    02:00 +17°C° 0 mm 3 mps 701 mmHg 48%
    03:00 +17°C° 0 mm 3 mps 701 mmHg 48%
    04:00 +17°C° 0 mm 4 mps 701 mmHg 48%
    05:00 +17°C° 0 mm 4 mps 701 mmHg 48%
    06:00 +19°C° 0 mm 4 mps 701 mmHg 45%
    07:00 +21°C° 0 mm 5 mps 701 mmHg 42%
    08:00 +25°C° 0 mm 5 mps 701 mmHg 39%
    09:00 +26°C° 0 mm 5 mps 701 mmHg 35%
    10:00 +28°C° 0 mm 5 mps 701 mmHg 32%
    11:00 +30°C° 0 mm 4 mps 701 mmHg 29%
    12:00 +30°C° 0 mm 4 mps 701 mmHg 28%
    13:00 +30°C° 0 mm 4 mps 701 mmHg 28%
    14:00 +30°C° 0 mm 4 mps 701 mmHg 27%
    15:00 +29°C° 0 mm 4 mps 701 mmHg 29%
    16:00 +28°C° 0 mm 3 mps 701 mmHg 32%
    17:00 +27°C° 0 mm 3 mps 700 mmHg 34%
    18:00 +25°C° 0 mm 3 mps 700 mmHg 37%
    19:00 +21°C° 0 mm 3 mps 700 mmHg 40%
    20:00 +19°C° 0 mm 2 mps 700 mmHg 44%
    21:00 +19°C° 0 mm 2 mps 700 mmHg 43%
    22:00 +18°C° 0 mm 2 mps 700 mmHg 42%
    23:00 +18°C° 0 mm 3 mps 699 mmHg 41%
    Show more